2020-026A

Last updated on Thu Apr 30 2020 00:02:08 GMT+0000 (Coordinated Universal Time)

1 45595U 20026A 20119.56587424 .00001440 00000-0 33911-4 0 9992 2 45595 51.6450 234.0607 0001480 200.5697 251.6220 15.49325980224322

Satellite not in orbit

2020-026A